Weather in Los Teques

Venezuela     10°21′21″N   67°00′19″W
temp.,
°C
wind,
m/s
gust,
m/s
humid.,
%
clouds,
%
prec.,
mm/h
press.,
hPa
HPBL,
m
21 april, wed
wed2123:00+17nne11890 0.0 101726
02:00+17n11897 0.0 101522
05:00+17nne11943 0.0 101520
08:00+22e24700 0.0 1017420
11:00+28se23452 0.0 10161539
14:00+31ese223016 0.0 10122634
17:00+30ene342851 0.0 10092504
20:00+22ene236911 0.0 1013108
22 april, thu
thu2223:00+18ene139547 0.0 1015107
02:00+18ne129449 0.0 1014176
05:00+17n11965 0.0 101432
08:00+22e24730 0.0 1016388
11:00+29se22430 0.0 10151379
14:00+32ese33261 0.0 10112890
17:00+29ese463793 0.0 10091315
20:00+23e23678 0.0 101382
23 april, fri
fri2323:00+19ene129315 0.0 101556
02:00+19nne129361 0.0 1014175
05:00+18n11880 0.0 101417
08:00+23e23630 0.0 1015344
11:00+30ese23430 0.0 10141473
14:00+34e232611 0.0 10103039
17:00+26ese3853100 0.1 1010591
20:00+23e247164 0.3 1012363
24 april, sat
sat2423:00+20ese139556 0.1 1014167
02:00+19e129538 0.1 1013152
05:00+18n119725 1.1 101430
08:00+22ene138153 1.2 1015443
11:00+29ese23498 0.1 10151258
14:00+32se333435 0.3 10102642
17:00+29ese4644100 0.1 10091215
20:00+21e138476 0.4 101296
25 april, sun
sun2523:00+20e239574 1.1 1014238
02:00+20ese129588 1.3 1013214
05:00+20e129679 0.0 1013141
08:00+22ese248382 0.1 1015581
11:00+28e235245 0.1 10141464
14:00+29ese2346100 0.1 10111536
17:00+29e434215 0.1 10091602
20:00+22ene117196 0.1 101328